Satellite-Ground Cal/Val Site Overpasses Predictions

Prediction of Satellite NPP Overpassing Cal/Val Site: Antarctic Dome C

Ground Cal/Val Site Location: Latitude: -75.10, Longitude: 123.35; Satellite-Ground Site NADIR distance within 100 km.

Table of predicted overpasses for the next 14.0 days since TLE Epoch: 1/9/2015
Interval Starting Time Ending Time Minimum Distance Time Minimum Distance (km)
1 01/09/2015 14:43:34 01/09/2015 14:43:46 01/09/2015 14:43:40 89.82
2 01/10/2015 07:45:04 01/10/2015 07:45:31 01/10/2015 07:45:17 41.61
3 01/11/2015 07:26:15 01/11/2015 07:26:36 01/11/2015 07:26:25 68.50
4 01/13/2015 15:08:25 01/13/2015 15:08:50 01/13/2015 15:08:37 54.11
5 01/14/2015 14:49:34 01/14/2015 14:49:59 01/14/2015 14:49:46 55.26
6 01/15/2015 07:51:14 01/15/2015 07:51:32 01/15/2015 07:51:23 76.42
7 01/16/2015 07:32:18 01/16/2015 07:32:46 01/16/2015 07:32:32 31.54
8 01/18/2015 15:14:39 01/18/2015 15:14:50 01/18/2015 15:14:44 91.40
9 01/19/2015 14:55:37 01/19/2015 14:56:06 01/19/2015 14:55:52 20.02
